sat.trackr.live / text

‹ back to catalog

STARLINK-34292

NORAD 64390 · 2025-127W

PAYLOAD ACTIVE UNKNOWN

§ Identity

Operator
Country
US
Launch date
2025-06-13
Launch site
AFETR
Launch vehicle
Mass (kg)
RCS (m²)

Purposes: comms

External: N2YO · Heavens-Above · Gunter

§ Orbital elements

Epoch: 2026-09-20T00:13:23.772288Z

Period
94.27 min
Inclination
42.9988°
Eccentricity
0.0000980
Mean motion
15.27595042 rev/d
Perigee alt
482.3 km
Apogee alt
483.7 km
Semi-major
6,861.1 km
B*
6.3999e-4
RAAN
162.5399°
Arg perigee
269.1000°
Mean anomaly
90.9739°
Rev number
7,218

§ Raw data

STARLINK-342921 64390U 25127W   26263.00930292  .00017399  00000+0  63999-3 0  99902 64390  42.9988 162.5399 0000980 269.1000  90.9739 15.27595042 72189

JSON: /api/v1/satellites/64390 · /tle

For live sub-satellite position, see the globe view (requires WebGL).

§ Visibility from observer

Set your observer location to see the next 7 days of passes ≥ 10°. The values pass through the URL so the page stays shareable.

No JS? Fill the form by hand. The geolocation button needs JavaScript.